Sisseton, SD

5:35 AM CDT on May 27, 2018 (GMT -0500)
Sisseton

Weather History for K8D3 - December, 2014

Change the Weather History Date:

Saturday, December 27, 2014

  Actual Average Record
Temperature  
Mean Temperature 15 °F 14 °F  
Max Temperature 24 °F 23 °F 48 °F (1986)
Min Temperature 5 °F 5 °F -24 °F (1993)
Degree Days  
Heating Degree Days 50 51  
Month to date heating degree days 1087 1285  
Since 1 July heating degree days 3067 3136  
Cooling Degree Days 0 0  
Month to date cooling degree days 0 0  
Year to date cooling degree days 442 527  
Moisture  
Dew Point 11 °F    
Average Humidity 78    
Maximum Humidity 88    
Minimum Humidity 68    
Precipitation  
Precipitation 0.00 in 0.01 in 0.20 in (1959)
Month to date precipitation 0.60 0.33  
Year to date precipitation 23.70 22.27  
Snow  
Snow 0.00 in - - ()
Month to date snowfall 4.7  
Since 1 July snowfall 13.1  
Snow Depth 2.00 in    
Sea Level Pressure  
Sea Level Pressure 30.20 in    
Wind  
Wind Speed 10 mph (WNW)    
Max Wind Speed 22 mph    
Max Gust Speed 26 mph    
T = Trace of Precipitation, MM = Missing Value Source: NWS Daily Summary

Daily Weather History Graph

Daily Weather History Graph

Search for Another Location

Airport or City:

Astronomy

Dec. 27, 2014 Rise Set
Actual Time 8:07 AM CST 4:50 PM CST
Civil Twilight 7:33 AM CST 5:24 PM CST
Nautical Twilight 6:55 AM CST 6:02 PM CST
Astronomical Twilight 6:19 AM CST 6:38 PM CST
Moon 11:38 AM CST No Moon Set
Length of Visible Light 9h 51m
Length of Day
8h 42m
Waxing Crescent, 38% of the Moon is Illuminated
Dec 27
Waxing Crescent
Dec 28
First Quarter
Jan 4
Full
Jan 13
Last Quarter
Jan 20
New

Hourly Weather History & Observations

Time (CST) Temp. Windchill Dew Point Humidity Pressure Visibility Wind Dir Wind Speed Gust Speed Precip Events Conditions
12:56 AM 8.1 °F -9.6 °F 5.0 °F 87% 30.28 in - NNW 16.1 mph - N/A   Unknown
1:56 AM 8.1 °F -9.0 °F 5.0 °F 87% 30.28 in - NNW 15.0 mph - N/A   Unknown
2:56 AM 8.1 °F -6.2 °F 3.9 °F 83% 30.28 in - NNW 10.4 mph - N/A   Unknown
3:56 AM 8.1 °F -7.0 °F 3.9 °F 83% 30.28 in - NNW 11.5 mph - N/A   Unknown
4:56 AM 8.1 °F -4.3 °F 3.9 °F 83% 30.27 in - NW 8.1 mph - N/A   Unknown
5:56 AM 7.0 °F -3.3 °F 3.0 °F 84% 30.27 in - NNW 5.8 mph - N/A   Unknown
6:56 AM 6.1 °F -2.8 °F 1.9 °F 83% 30.26 in - North 4.6 mph - N/A   Unknown
7:56 AM 5.0 °F -2.1 °F 1.9 °F 87% 30.25 in - NNW 3.5 mph - N/A   Unknown
8:56 AM 7.0 °F - 3.0 °F 84% 30.25 in - Calm Calm - N/A   Unknown
9:56 AM 10.0 °F 3.6 °F 5.0 °F 80% 30.25 in - SSE 3.5 mph - N/A   Unknown
10:56 AM 16.0 °F 6.3 °F 8.1 °F 71% 30.23 in - West 6.9 mph - N/A   Unknown
11:56 AM 19.0 °F 4.0 °F 12.0 °F 74% 30.20 in - West 17.3 mph - N/A   Unknown
12:56 PM 23.0 °F 10.1 °F 16.0 °F 74% 30.17 in - West 15.0 mph - N/A   Unknown
1:56 PM 24.1 °F 12.0 °F 17.1 °F 75% 30.16 in - West 13.8 mph - N/A   Unknown
2:56 PM 24.1 °F 16.0 °F 16.0 °F 71% 30.15 in - West 6.9 mph - N/A   Unknown
3:56 PM 23.0 °F 13.9 °F 16.0 °F 74% 30.16 in - West 8.1 mph - N/A   Unknown
4:56 PM 21.9 °F 11.0 °F 15.1 °F 75% 30.16 in - WNW 10.4 mph - N/A   Unknown
5:56 PM 21.9 °F 7.3 °F 16.0 °F 78% 30.15 in - West 18.4 mph - N/A   Unknown
6:56 PM 23.0 °F 14.7 °F 17.1 °F 78% 30.16 in - NNW 6.9 mph - N/A   Unknown
7:18 PM 23.0 °F 10.1 °F 17.1 °F 78% 30.05 in - West 15.0 mph 25.3 mph N/A   Unknown
7:56 PM 21.9 °F 10.4 °F 16.0 °F 78% 30.17 in - West 11.5 mph - N/A   Unknown
8:56 PM 21.0 °F 7.6 °F 16.0 °F 81% 30.15 in - WSW 15.0 mph - N/A   Unknown
9:56 PM 21.9 °F 8.7 °F 17.1 °F 82% 30.13 in - West 15.0 mph - N/A   Unknown
10:56 PM 21.0 °F 7.1 °F 16.0 °F 81% 30.14 in - West 16.1 mph - N/A   Unknown
11:56 PM 19.0 °F 10.0 °F 15.1 °F 85% 30.13 in - WNW 6.9 mph - N/A   Unknown